OK1TBF-6 Weather Reports


time (UTC)temp
F
wind
direction
speed
knots
gust
knots
rain 1hr
in
rain 24hr
in
rain mn
in
humidity
%
barometer
mb
20260504223035 63 115 3.5 7.0 0.00 0.00 0.00 47 1003.6
20260504222035 63 112 3.5 7.0 0.00 0.00 0.00 46 1003.8
20260504221535 63 111 3.5 7.8 0.00 0.00 0.00 47 1003.8
20260504220536 64 114 4.3 6.1 0.00 0.00 0.00 46 1003.8
20260504220039 64 111 3.5 5.2 0.00 0.00 0.00 46 1003.9
20260504215536 64 108 3.5 5.2 0.00 0.00 0.00 46 1004.0
20260504215036 64 108 1.7 6.1 0.00 0.00 0.00 46 1003.9
20260504214035 64 118 2.6 6.1 0.00 0.00 0.00 45 1004.0
20260504213536 65 119 3.5 6.1 0.00 0.00 0.00 44 1004.0
20260504213035 65 119 2.6 7.8 0.00 0.00 0.00 44 1004.1
20260504212036 65 122 2.6 5.2 0.00 0.00 0.00 44 1004.0
20260504211535 65 133 2.6 7.0 0.00 0.00 0.00 45 1004.1
20260504211035 65 131 3.5 7.0 0.00 0.00 0.00 44 1004.1
20260504210037 66 127 3.5 9.6 0.00 0.00 0.00 44 1004.0
20260504205534 66 122 4.3 7.8 0.00 0.00 0.00 44 1004.0
20260504205034 65 125 3.5 6.1 0.00 0.00 0.00 44 1004.1
20260504204535 65 126 3.5 5.2 0.00 0.00 0.00 46 1004.1
20260504204035 66 120 3.5 6.1 0.00 0.00 0.00 44 1004.0
20260504203533 66 116 2.6 6.1 0.00 0.00 0.00 45 1004.3
20260504203034 66 115 1.7 3.5 0.00 0.00 0.00 46 1004.1
20260504202534 66 116 3.5 3.5 0.00 0.00 0.00 46 1004.1
20260504202031 66 131 2.6 7.0 0.00 0.00 0.00 46 1004.1
20260504201530 66 133 1.7 7.0 0.00 0.00 0.00 45 1004.1
20260504201029 67 132 3.5 7.8 0.00 0.00 0.00 44 1004.0
20260504200028 67 140 3.5 9.6 0.00 0.00 0.00 44 1004.2
20260504195529 67 149 3.5 9.6 0.00 0.00 0.00 43 1004.1
20260504194528 67 150 3.5 9.6 0.00 0.00 0.00 44 1004.2
20260504194028 67 147 2.6 7.8 0.00 0.00 0.00 44 1004.1
20260504193527 67 147 4.3 7.0 0.00 0.00 0.00 44 1004.1
20260504193028 67 145 3.5 7.0 0.00 0.00 0.00 45 1004.1
20260504192528 67 149 4.3 7.0 0.00 0.00 0.00 45 1004.0
20260504192028 67 156 3.5 9.6 0.00 0.00 0.00 46 1004.2
20260504191527 68 155 4.3 9.6 0.00 0.00 0.00 45 1004.1
20260504191027 68 156 6.1 9.6 0.00 0.00 0.00 45 1004.0
20260504190528 68 160 6.1 9.6 0.00 0.00 0.00 45 1004.3
20260504185526 68 154 6.1 7.8 0.00 0.00 0.00 45 1004.1
20260504185028 68 158 5.2 9.6 0.00 0.00 0.00 45 1004.0
20260504184527 69 152 6.1 12.2 0.00 0.00 0.00 45 1004.0
20260504183527 69 147 7.8 12.2 0.00 0.00 0.00 46 1004.1
20260504183027 69 149 5.2 9.6 0.00 0.00 0.00 47 1004.0
20260504182528 69 138 1.7 5.2 0.00 0.00 0.00 48 1004.0
20260504182028 69 137 1.7 5.2 0.00 0.00 0.00 49 1003.7
20260504181527 69 139 1.7 5.2 0.00 0.00 0.00 49 1003.8
20260504181027 69 137 1.7 5.2 0.00 0.00 0.00 48 1003.7
20260504180528 69 140 0.9 3.5 0.00 0.00 0.00 48 1003.7
20260504180027 69 149 2.6 3.5 0.00 0.00 0.00 48 1003.8
20260504175027 70 270 0.9 1.7 0.00 0.00 0.00 48 1003.7
20260504174526 70 270 0.0 1.7 0.00 0.00 0.00 48 1003.5
20260504174027 70 270 0.9 1.7 0.00 0.00 0.00 47 1003.7
20260504173026 71 0 0.0 0.0 0.00 0.00 0.00 46 1003.8
20260504171526 71 0 0.0 0.0 0.00 0.00 0.00 46 1003.8
20260504171026 71 270 0.0 1.7 0.00 0.00 0.00 46 1003.6
20260504170526 71 270 0.0 1.7 0.00 0.00 0.00 46 1003.9
20260504151025 72 209 2.6 7.8 0.00 0.00 0.00 47 1004.1
20260504150526 72 213 2.6 7.8 0.00 0.00 0.00 44 1004.1
20260504141025 71 203 6.1 9.6 0.00 0.00 0.00 44 1004.6
20260504140524 71 189 7.0 9.6 0.00 0.00 0.00 46 1004.7
20260504130523 72 200 6.1 12.2 0.00 0.00 0.00 46 1005.1
20260504110524 69 163 4.3 11.3 0.00 0.00 0.00 47 1005.7
20260504100522 66 151 4.3 13.0 0.00 0.00 0.00 48 1006.0
20260504081521 64 129 0.9 7.0 0.00 0.00 0.00 53 1006.5
20260504081022 63 131 3.5 7.0 0.00 0.00 0.00 54 1006.4
20260504080521 63 139 3.5 7.0 0.00 0.00 0.00 53 1006.3
20260504050520 56 135 1.7 7.8 0.00 0.00 0.00 54 1006.1
20260504050021 56 133 2.6 9.6 0.00 0.00 0.00 53 1006.1
20260504045519 55 133 3.5 9.6 0.00 0.00 0.00 53 1006.0
20260504045020 55 127 1.7 7.8 0.00 0.00 0.00 53 1006.0
20260504044519 55 126 2.6 7.8 0.00 0.00 0.00 53 1006.0
20260504044021 55 131 3.5 9.6 0.00 0.00 0.00 54 1005.9
20260504043520 54 130 3.5 9.6 0.00 0.00 0.00 53 1006.1
20260504042520 54 133 3.5 7.8 0.00 0.00 0.00 54 1006.0
20260504041520 54 129 3.5 7.8 0.00 0.00 0.00 54 1006.3
20260504041020 54 128 2.6 7.8 0.00 0.00 0.00 54 1006.0
20260504040021 54 125 5.2 12.2 0.00 0.00 0.00 54 1006.0
20260504035519 55 124 3.5 14.8 0.00 0.00 0.00 53 1005.9
20260504035019 54 129 4.3 17.4 0.00 0.00 0.00 53 1005.7
20260504034520 54 131 7.0 17.4 0.00 0.00 0.00 54 1005.6
20260504034020 54 125 7.0 17.4 0.00 0.00 0.00 54 1005.5
20260504033519 54 116 7.0 13.0 0.00 0.00 0.00 53 1005.8
20260504033018 54 115 7.0 13.0 0.00 0.00 0.00 53 1005.7
20260504032520 54 124 6.1 9.6 0.00 0.00 0.00 53 1005.8
20260504032019 54 126 6.1 9.6 0.00 0.00 0.00 53 1005.8
20260504031519 54 126 4.3 9.6 0.00 0.00 0.00 53 1005.8
20260504030519 54 114 6.1 9.6 0.00 0.00 0.00 53 1006.0
20260504030020 54 113 3.5 9.6 0.00 0.00 0.00 52 1005.9
20260504025020 54 115 5.2 11.3 0.00 0.00 0.00 52 1005.7
20260504024519 54 116 5.2 13.0 0.00 0.00 0.00 52 1005.9
20260504023019 54 121 6.1 11.3 0.00 0.00 0.00 52 1005.8
20260504022518 55 112 4.3 11.3 0.00 0.00 0.00 51 1005.7
20260504022018 55 120 4.3 11.3 0.00 0.00 0.00 51 1005.6
20260504021519 55 124 4.3 11.3 0.00 0.00 0.00 51 1005.8
20260504021018 55 120 7.0 11.3 0.00 0.00 0.00 50 1005.8
20260504020518 55 118 5.2 11.3 0.00 0.00 0.00 50 1005.7
20260504015518 56 127 7.0 12.2 0.00 0.00 0.00 50 1006.0
20260504015019 56 119 4.3 12.2 0.00 0.00 0.00 50 1005.8
20260504014518 56 122 7.0 12.2 0.00 0.00 0.00 50 1005.7
20260504014018 55 124 4.3 11.3 0.00 0.00 0.00 50 1005.8
20260504013019 56 123 5.2 11.3 0.00 0.00 0.00 49 1005.8
20260504012518 56 127 6.1 12.2 0.00 0.00 0.00 49 1005.7
20260504012018 56 123 5.2 12.2 0.00 0.00 0.00 49 1005.7
20260504011018 56 122 7.0 15.6 0.00 0.00 0.00 48 1005.8
20260504010018 56 131 5.2 13.0 0.00 0.00 0.00 48 1005.6
20260504005518 56 129 7.0 13.0 0.00 0.00 0.00 48 1005.6
20260504004517 56 127 7.0 13.9 0.00 0.00 0.00 48 1005.7
20260504004018 56 125 6.1 13.9 0.00 0.00 0.00 48 1005.7
20260504002517 56 129 7.0 12.2 0.00 0.00 0.00 48 1005.7
20260504002019 56 131 4.3 12.2 0.00 0.00 0.00 48 1005.8
20260504000517 57 112 7.0 11.3 0.00 0.00 0.00 48 1005.8
20260504000017 57 116 7.0 11.3 0.00 0.00 0.00 48 1005.8
20260503235518 57 128 4.3 9.6 0.00 0.00 0.00 48 1006.0
20260503235017 57 134 7.0 11.3 0.00 0.00 0.00 47 1006.0
20260503234517 57 124 3.5 11.3 0.00 0.00 0.00 48 1006.1
20260503233518 57 128 5.2 9.6 0.00 0.00 0.00 47 1006.0
20260503233017 58 128 6.1 9.6 0.00 0.00 0.00 47 1005.9
20260503231517 58 122 5.2 11.3 0.00 0.00 0.00 47 1006.0
20260503231017 58 127 5.2 11.3 0.00 0.00 0.00 47 1006.1
20260503224016 58 129 5.2 9.6 0.00 0.00 0.00 48 1006.2
20260503223517 58 128 6.1 9.6 0.00 0.00 0.00 48 1006.2